Погода в Советском

Казахстан     54°25′50″N   70°20′28″E
темп.,
°C
ветер,
м/с
пор.,
м/с
влажн.,
%
обл.,
%
осадки,
мм/ч
давл.,
гПа
погр.,
м
25 февраля, чт
чт2500:00−28ююз239669 0.0 101019
03:00−30зюз22987 0.0 101019
06:00−30з239826 0.0 101119
09:00−27з359899 0.1 1013107
12:00−20ссз579299 0.1 1015717
15:00−21сз6890100 0.1 1018790
18:00−24сз51092100 0.1 1022559
21:00−29зсз479891 0.0 1026104
26 февраля, пт
пт2600:00−30з479873 0.0 1028112
03:00−29з479869 0.0 1029134
06:00−29зюз479883 0.1 1031138
09:00−30зюз4898100 0.0 1032163
12:00−27зюз4696100 0.1 1033245
15:00−26юз469493 0.0 1033263
18:00−27юз349664 0.0 103354
21:00−28юз34960 0.0 103432
27 февраля, сб
сб2700:00−29юз34950 0.0 103432
03:00−30юз34940 0.0 103330
06:00−31ююз34950 0.0 103328
09:00−30ю34930 0.0 103241
12:00−26ююв46919 0.0 1031196
15:00−23ююв589212 0.0 1029256
18:00−22юв59926 0.0 1027197
21:00−15ююв61195100 0.1 1021407
28 февраля, вс
вс2800:00−13ююв71195100 0.8 1018562
03:00−12ююв61294100 1.1 1014693
06:00−11ююв61294100 2.2 1010554
09:00−9юв61194100 0.4 1007372
12:00−6ююв6994100 0.6 1005394
15:00−1ю5895100 0.4 1003546
18:00−1ююз4992100 0.4 1002299
21:00−2ююз3896100 0.1 1002233
1 марта, пн
пн100:00−3юз5994100 0.3 1003254
03:00−2юз51096100 0.8 1003463
06:00−4зюз4996100 0.9 1004294
09:00−4зюз3897100 0.3 1005246
12:00−9сз469498 0.4 1007279
15:00−11зсз579299 0.1 1009417
18:00−13зсз5893100 0.1 1012399
21:00−17зсз489798 0.0 1015163